Regional Weather Roundup
Issued by NWS Grand Forks, ND

Home | Current Version | Previous Version | Graphics & Text | Print | Product List | Glossary On
Versions: 1 2 3 4 5 6 7 8 9 10 11 12 13 14 15 16 17 18 19 20 21 22 23 24 25 26 27 28 29 30 31 32 33 34 35 36 37 38 39 40 41 42 43 44 45 46 47 48 49 50
000
ASUS43 KFGF 240331
RWRFGF
PRAIRIE TO PINES  WEATHER ROUNDUP
NATIONAL WEATHER SERVICE EASTERN NORTH DAKOTA/GRAND FORKS ND
1000 PM CDT SAT JUL 23 2016

 **SATELLITE DATA USED TO AUGMENT SKY COVER AT AUTOMATED STATIONS**
 *****  WEATHER ACROSS EASTERN NORTH DAKOTA  *****

CITY           SKY/WX    TMP DP  RH WIND       PRES   REMARKS
GRAND FORKS    PTCLDY    68  66  93 SW6       29.70S
GRAND FRKS AFB CLEAR     69  69  99 W7        29.72R
GRAND FRKS NWS   N/A     68 N/A N/A W5          N/A
DEVILS LAKE    CLEAR     68  61  78 W9        29.76R
FARGO          MOCLDY    77  73  87 NW5       29.73R
WAHPETON ARPT  CLOUDY    70  64  83 W5        29.76R
$$

 ***** WEATHER ACROSS CENTRAL AND WESTERN NORTH DAKOTA  *****

CITY           SKY/WX    TMP DP  RH WIND       PRES   REMARKS
BISMARCK       CLEAR     77  54  44 NW12      29.86R
MINOT          CLEAR     72  57  59 W15       29.82R
JAMESTOWN      CLEAR     68  61  78 W7        29.79R
MINOT AFB      CLEAR     67  58  73 W14       29.82R
GARRISON         N/A     65  58  78 NW10      29.87R
WILLISTON      CLEAR     68  56  65 NW8       29.92R
DICKINSON      CLEAR     67  51  56 NW8       29.94R
HETTINGER      CLEAR     70  45  40 NW9       29.96R
$$

 *****  OTHER AIRPORT OBSERVATIONS IN OUR AREA  *****

CITY           SKY/WX    TMP DP  RH WIND       PRES   REMARKS
WALHALLA       FAIR      70  66  88 W7        29.69S
GRAFTON AIRPOR MOCLDY    70  70 100 SW7       29.72R
VALLEY CITY AR   N/A     72  72 100 W10       29.80R
CANDO          FAIR      66  61  82 W9        29.78R
CAVALIER APRT  FAIR      70  68  94 SW6       29.69S
GWINNER        FAIR      73  70  88 W7        29.79R
SHEYENNE NWR     N/A     76  69  80 NW7       29.95S
ROLLA            N/A     66  57  72 W10G16    29.77R
 ***** THE ABOVE OBSERVATIONS ARE NON NWS ARE NOT QUALITY
       CONTROLLED AND MAY MIS-REPORT RAIN FOR SNOW...
$$

  *****  WEATHER ACROSS NORTHERN MINNESOTA  *****

CITY           SKY/WX    TMP DP  RH WIND       PRES   REMARKS
FLAG ISLAND    TSTM      70  66  88 CALM      29.67F
WARROAD        RAIN      72  68  88 CALM      29.69F
ROSEAU         MOCLDY    72  66  83 W3        29.70S
HALLOCK        PTCLDY    70  68  94 SW6       29.69R
THF RVR FALLS  CLOUDY    71  70  96 W5        29.73R
BAUDETTE       CLOUDY    74  69  85 S5        29.71S
WASKISH        CLOUDY    73  66  78 S6        29.72F
CROOKSTON      CLOUDY    72  70  94 CALM      29.73R
STEPHEN NDAWN    N/A     70  68  94 S3          N/A
GREENBUSH NDAW   N/A     70  66  88 S2          N/A
$$
  *****  WEATHER ACROSS CENTRAL AND WEST MINNESOTA  *****

CITY           SKY/WX    TMP DP  RH WIND       PRES   REMARKS
FOSSTON        CLOUDY    72  70  94 S6        29.75R
BEMIDJI        CLOUDY    73  68  83 S6        29.75R
PARK RAPIDS    CLOUDY    75  69  81 S10       29.75R
ELBOW LAKE     LGT RAIN  74  72  93 SW6       29.78R
WADENA         CLOUDY    73  70  88 SE7       29.75R
DETROIT LAKES  CLOUDY    68  63  83 SW7G29    29.76R
MOORHEAD       MOCLDY    73  72  94 CALM      29.75R
FERGUS FALLS   LGT RAIN  73  70  88 SW3       29.75R
MORRIS MN      CLOUDY    75  75 100 S7        29.74R VSB 3/4
STAPLES        CLOUDY    73  66  78 SE5       29.75S
$$
  *****  WEATHER ELSEWHERE ACROSS MINNESOTA  *****

CITY           SKY/WX    TMP DP  RH WIND       PRES   REMARKS
DULUTH         MOCLDY    63  59  87 E8        29.82F
INTRNTL FALLS  CLOUDY    71  66  84 SE5       29.74R
ELY            CLEAR     66  57  72 SE7       29.83S
CLOQUET        CLOUDY    63  59  88 E5        29.82F
WHEATON        TSTM      73  72  94 E7        29.78R
BRAINERD       CLOUDY    72  69  90 SE6       29.77S
HIBBING        PTCLDY    67  64  90 SE7       29.80S
ALEXANDRIA     CLOUDY    75  72  90 SE8       29.76S
SAINT CLOUD    CLOUDY    72  72 100 E5        29.77R
MINNEAPOLIS    MOCLDY    75  71  87 E7        29.78S
$$

  *****  WEATHER ACROSS SOUTH DAKOTA  *****

CITY           SKY/WX    TMP DP  RH WIND       PRES   REMARKS
SIOUX FALLS    PTCLDY    86  73  65 SW7       29.76R HX  93
BROOKINGS      PTCLDY    81  75  83 NW15      29.79R
WATERTOWN      MOCLDY    81  72  74 NW15      29.79R
HURON          CLEAR     79  68  69 NW13      29.81R
SISSETON         N/A     80  73  79 NW15G24   29.74R
ABERDEEN       CLEAR     75  67  76 NW10      29.81R
MITCHELL       MOCLDY    83  72  69 N14       29.81R
PIERRE         CLEAR     74  58  57 N6        29.86R
MOBRIDGE       CLEAR     68  59  73 N6        29.84R
RAPID CITY     CLEAR     70  43  37 N8        29.99R
$$

  *****  SOME WEATHER IN NEARBY STATES *****

CITY           SKY/WX    TMP DP  RH WIND       PRES   REMARKS
GLASGOW MT     CLEAR     68  50  52 VRB7      29.96S
GREAT FALLS MT CLOUDY    73  37  27 N6        30.04R
CHEYENNE WY    CLOUDY    76  40  27 S20G26    30.15F
SCOTTSBLUFF NE PTCLDY    75  57  53 E5        29.99R
OMAHA NE       CLOUDY    86  76  71 S14       29.78R HX  96
DES MOINES IA  PTCLDY    84  77  79 S7        29.82R HX  94
DAVENPORT IA   CLOUDY    75  73  93 SE13      29.92R
CHICAGO IL     TSTM      72  70  93 W18G28    30.05R VSB 1
EAU CLAIRE WI  CLEAR     69  69 100 E6        29.83R
LA CROSSE WI   CLEAR     74  69  85 S8        29.82R
$$

  *****  SOME NATIONAL WEATHER *****

CITY           SKY/WX    TMP DP  RH WIND       PRES   REMARKS
LA GUARDIA NY  PTCLDY    87  57  35 NW7       29.87R
RALEIGH NC     PTCLDY    80  73  79 SW6       29.99R
ATLANTA GA     CLOUDY    83  70  64 N6        30.03R
NEW ORLEANS LA MOCLDY    84  75  74 W3        29.97R HX  92
OKLAHOMA CITY  CLEAR     85  67  54 S7        29.90R
ALBUQUERQUE NM MOCLDY    90  44  20 SW20G28   30.04R
SALT LAKE CITY PTCLDY    85  30  13 N5        30.01S
LOS ANGELES CA MOCLDY    74  65  73 SE8       29.81R
BOISE ID       CLEAR     81  31  16 NW8       30.03S
SEATTLE WA     PTCLDY    69  56  62 NW7       30.21S
$$

*** WEATHER ACROSS MANITOBA...SASKATCHEWAN AND ONTARIO ***
                ***ONTARIO***

CITY           SKY/WX    TMP DP  RH WIND       PRES   REMARKS
GERALDTON      CLOUDY    70  57  64 E7        29.92F
THUNDER BAY    MOCLDY    66  61  82 E10       29.87F
SIOUX LOOKOUT  MOCLDY    72  63  73 S12G20    29.76F
TORONTO        PTCLDY    77  57  50 N10       29.98R
BIG TROUT LK   LGT RAIN  68  55  64 SE12G17   29.78F
PICKLE LAKE    NOT AVBL
DRYDEN         PTCLDY    72  61  68 S12G17    29.75R
KENORA         TSTM      70  66  88 SW5       29.71S
$$
                *** MANITOBA***

CITY           SKY/WX    TMP DP  RH WIND       PRES   REMARKS
BRANDON        PTCLDY    64  57  77 W14       29.72R
DAUPHIN        MOCLDY    63  59  88 W12       29.68R
ISLAND LAKE    LGT RAIN  66  59  77 S8        29.71
PILOT MOUND      N/A     66  55  68 W6          N/A
THE PAS        MOCLDY    64  61  88 NW13      29.66R
THOMPSON       LGT RAIN  63  61  94 VRB2      29.72S
WINNIPEG       MOCLDY    70  68  94 S9        29.65F
LYNN LAKE      CLOUDY    64  59  82 MISG      29.71S
CHURCHILL      LGT RAIN  59  57  94 N7        29.72R
GILLAM         LGT RAIN  63  59  88 S5        29.74F
$$
                ***SASKATCHEWAN***

CITY           SKY/WX    TMP DP  RH WIND       PRES   REMARKS
ESTEVAN        PTCLDY    64  59  82 W9        29.86R
KINDERSLEY     PTCLDY    66  57  72 NW3       29.94R
LLOYDMINSTER   PTCLDY    63  52  67 W6        29.91R
PRINCE ALBERT  MOCLDY    61  59  94 VRB2      29.78R
REGINA         PTCLDY    64  57  77 W12       29.87R
YORKTON        CLEAR     59  57  94 W8        29.77R
N. BATTLEFORD  CLEAR     64  50  59 NW13      29.89R
LA RONGE       MOCLDY    63  61  94 W2        29.77
SASKATOON      PTCLDY    64  52  63 W10       29.87R
SWIFT CURRENT  PTCLDY    59  55  88 W6        29.96S
$$
NOTE: THESE ARE AUTOMATED STATIONS WITH LIMITED QUALITY CONTROL
      "FAIR" INDICATES FEW OR NO CLOUDS BELOW 12,000 FEET WITH NO
      SIGNIFICANT WEATHER AND/OR OBSTRUCTIONS TO VISIBILITY.
      SKY/WX - SKY CONDITION AND SIGNIFICANT WEATHER.
      TMP - AIR TEMPERATURE.    DP   - DEWPOINT TEMPERATURE.
      RH  - RELATIVE HUMIDITY.  PRES - PRESSURE.
      HX  - HEAT INDEX.         WCI  - WIND CHILL INDEX.
$



USA.gov is the U.S. government's official web portal to all federal, state and local government web resources and services.